Date String (YYYY-MM-DD hh:mm:ss) UTC,Instrument flags,Ambient pressure (hPa),Sample flow (lpm),Bypass flow (lpm),Sample temperature (°C),Ambient temperature (°C),ASC tube jacket temperature (°C),LED temperature (°C),Box temperature (°C),Sample RH (%),Span deviation,Mass concentration (μg/m³),Mass concentration (μg/m³),Mass concentration (μg/m³)
DateTimeUTC,F1_M11,P_M11,Q1_M11,Q2_M11,T1_M11,T2_M11,T3_M11,T4_M11,T5_M11,U1_M11,ZSPAN_M11,X2_M11,X0_M11,X1_M11
2023-02-12 09:00:00,,0823.3,5.00,0.00,21.8,20.1,00.0,30.9,23.4,09.5,0000.0,0004.75,0008.47,0004.45
2023-02-12 09:01:00,,0823.3,5.01,0.00,21.8,20.0,00.0,30.9,23.4,09.5,0000.0,0004.66,0008.35,0004.35
2023-02-12 09:02:00,,0823.3,5.00,0.00,21.8,19.9,00.0,30.8,23.3,09.7,0000.0,0004.58,0008.16,0004.28
2023-02-12 09:03:00,,0823.3,5.01,0.00,21.7,19.8,00.0,30.8,23.2,09.8,0000.0,0004.61,0008.18,0004.30
2023-02-12 09:04:00,,0823.4,5.00,0.00,21.7,19.7,00.0,30.8,23.2,09.6,0000.0,0004.60,0008.16,0004.28
2023-02-12 09:05:00,,0823.3,4.98,0.00,21.6,19.7,00.0,30.8,23.2,09.5,0000.0,0004.48,0007.57,0004.17
2023-02-12 09:06:00,,0823.3,5.02,0.00,21.6,20.0,00.0,30.7,23.2,09.5,0000.0,0004.30,0006.66,0003.99
2023-02-12 09:07:00,,0823.4,4.96,0.00,21.7,21.3,00.0,30.7,23.6,09.6,0000.0,0004.07,0006.23,0003.79
2023-02-12 09:08:00,,0823.3,5.04,0.00,21.9,22.5,00.0,30.7,23.9,09.5,0000.0,0003.90,0006.38,0003.61
2023-02-12 09:09:00,,0823.2,5.02,0.00,22.0,22.5,00.0,30.7,24.0,09.5,0000.0,0003.90,0007.41,0003.58
2023-02-12 09:10:00,,0823.2,4.95,0.00,22.0,21.9,00.0,30.8,23.9,09.6,0000.0,0003.98,0007.55,0003.62
2023-02-12 09:11:00,,0823.2,5.00,0.00,22.0,21.4,00.0,30.8,23.7,09.6,0000.0,0004.04,0007.65,0003.66
2023-02-12 09:12:00,,0823.2,4.99,0.00,21.9,20.9,00.0,30.8,23.6,09.6,0000.0,0004.05,0007.69,0003.67
2023-02-12 09:13:00,,0823.2,4.96,0.00,21.9,20.6,00.0,30.8,23.5,09.5,0000.0,0004.02,0007.64,0003.68
2023-02-12 09:14:00,,0823.2,5.00,0.00,21.9,20.4,00.0,30.8,23.4,09.6,0000.0,0003.94,0007.47,0003.62
2023-02-12 09:15:00,,0823.2,5.00,0.00,21.8,20.2,00.0,30.8,23.4,09.7,0000.0,0003.90,0007.36,0003.60
2023-02-12 09:16:00,,0823.3,5.00,0.00,21.8,20.0,00.0,30.8,23.3,09.8,0000.0,0003.91,0007.35,0003.61
2023-02-12 09:17:00,,0823.2,5.01,0.00,21.7,19.9,00.0,30.8,23.3,09.9,0000.0,0003.93,0007.29,0003.64
2023-02-12 09:18:00,,0823.3,4.98,0.00,21.7,19.8,00.0,30.8,23.2,09.9,0000.0,0003.97,0007.21,0003.68
2023-02-12 09:19:00,,0823.2,5.01,0.00,21.7,19.7,00.0,30.8,23.2,10.0,0000.0,0004.01,0007.11,0003.72
2023-02-12 09:20:00,,0823.2,5.00,0.00,21.6,19.7,00.0,30.7,23.2,10.0,0000.0,0004.03,0005.95,0003.74
2023-02-12 09:21:00,,0823.2,5.04,0.00,21.6,20.0,00.0,30.7,23.2,10.1,0000.0,0004.06,0006.03,0003.76
2023-02-12 09:22:00,,0823.2,4.98,0.00,21.7,21.4,00.0,30.7,23.6,10.0,0000.0,0004.06,0005.98,0003.77
2023-02-12 09:23:00,,0823.2,4.99,0.00,21.9,22.5,00.0,30.7,23.9,09.7,0000.0,0004.03,0005.73,0003.75
2023-02-12 09:24:00,,0823.2,4.98,0.00,22.0,22.4,00.0,30.7,24.0,09.7,0000.0,0004.02,0005.76,0003.74
2023-02-12 09:25:00,,0823.2,5.00,0.00,22.0,21.8,00.0,30.8,23.9,09.8,0000.0,0004.04,0005.89,0003.74
2023-02-12 09:26:00,,0823.2,5.00,0.00,22.0,21.3,00.0,30.8,23.8,09.8,0000.0,0004.03,0005.85,0003.73
2023-02-12 09:27:00,,0823.2,5.00,0.00,22.0,20.9,00.0,30.8,23.7,09.6,0000.0,0004.00,0005.83,0003.72
2023-02-12 09:28:00,,0823.1,4.98,0.00,21.9,20.7,00.0,30.8,23.6,09.6,0000.0,0003.98,0005.87,0003.69
2023-02-12 09:29:00,,0823.1,5.00,0.00,21.9,20.4,00.0,30.8,23.5,09.7,0000.0,0003.95,0007.35,0003.66
2023-02-12 09:30:00,,0823.1,4.99,0.00,21.8,20.2,00.0,30.8,23.4,09.7,0000.0,0003.90,0007.24,0003.63
2023-02-12 09:31:00,,0823.1,5.00,0.00,21.8,20.0,00.0,30.8,23.3,09.8,0000.0,0003.85,0007.07,0003.60
2023-02-12 09:32:00,,0823.1,5.00,0.00,21.7,19.9,00.0,30.8,23.3,09.8,0000.0,0003.80,0006.97,0003.57
2023-02-12 09:33:00,,0823.1,4.99,0.00,21.7,19.8,00.0,30.8,23.2,09.8,0000.0,0003.78,0006.94,0003.55
2023-02-12 09:34:00,,0823.1,5.02,0.00,21.6,19.7,00.0,30.7,23.2,09.9,0000.0,0003.79,0007.06,0003.55
2023-02-12 09:35:00,,0823.1,5.00,0.00,21.6,19.7,00.0,30.7,23.1,09.8,0000.0,0003.79,0007.05,0003.55
2023-02-12 09:36:00,,0823.1,4.98,0.00,21.6,20.1,00.0,30.7,23.2,09.8,0000.0,0003.76,0006.92,0003.52
2023-02-12 09:37:00,,0823.1,4.98,0.00,21.7,21.5,00.0,30.6,23.6,09.7,0000.0,0003.71,0006.82,0003.49
2023-02-12 09:38:00,,0823.1,4.99,0.00,21.9,22.7,00.0,30.6,24.0,09.6,0000.0,0003.68,0006.72,0003.47
2023-02-12 09:39:00,,0823.1,4.99,0.00,22.0,22.5,00.0,30.7,24.0,09.5,0000.0,0003.70,0006.67,0003.48
2023-02-12 09:40:00,,0823.1,5.06,0.00,22.0,21.9,00.0,30.7,23.9,09.5,0000.0,0003.68,0005.04,0003.48
2023-02-12 09:41:00,,0823.1,5.03,0.00,22.0,21.4,00.0,30.8,23.7,09.6,0000.0,0003.72,0005.05,0003.50
2023-02-12 09:42:00,,0823.0,5.02,0.00,21.9,21.0,00.0,30.8,23.6,09.7,0000.0,0003.74,0005.10,0003.52
2023-02-12 09:43:00,,0823.0,5.00,0.00,21.9,20.6,00.0,30.8,23.5,09.7,0000.0,0003.72,0005.02,0003.53
2023-02-12 09:44:00,,0823.0,5.00,0.00,21.9,20.4,00.0,30.8,23.5,09.7,0000.0,0003.69,0005.11,0003.51
2023-02-12 09:45:00,,0823.0,5.00,0.00,21.8,20.2,00.0,30.8,23.4,09.7,0000.0,0003.66,0005.53,0003.48
2023-02-12 09:46:00,,0823.0,5.01,0.00,21.8,20.1,00.0,30.8,23.3,09.9,0000.0,0003.65,0006.04,0003.46
2023-02-12 09:47:00,,0823.0,5.00,0.00,21.7,19.9,00.0,30.8,23.3,09.7,0000.0,0003.66,0006.68,0003.44
2023-02-12 09:48:00,,0823.0,5.01,0.00,21.7,19.8,00.0,30.7,23.2,09.7,0000.0,0003.67,0007.59,0003.43
2023-02-12 09:49:00,,0822.9,5.01,0.00,21.7,19.7,00.0,30.7,23.2,09.7,0000.0,0003.67,0007.62,0003.42
2023-02-12 09:50:00,,0822.9,5.02,0.00,21.6,19.7,00.0,30.7,23.2,09.7,0000.0,0003.64,0007.56,0003.38
2023-02-12 09:51:00,,0823.0,5.00,0.00,21.6,19.7,00.0,30.7,23.1,09.8,0000.0,0003.64,0007.61,0003.36
2023-02-12 09:52:00,,0823.0,5.06,0.00,21.6,20.9,00.0,30.6,23.4,09.7,0000.0,0003.60,0007.58,0003.31
2023-02-12 09:53:00,,0823.0,5.00,0.00,21.8,22.1,00.0,30.6,23.8,09.6,0000.0,0003.55,0007.54,0003.26
2023-02-12 09:54:00,,0823.0,5.02,0.00,21.9,22.7,00.0,30.7,24.0,09.4,0000.0,0003.52,0007.54,0003.21
2023-02-12 09:55:00,,0822.9,5.05,0.00,22.0,22.1,00.0,30.7,23.9,09.3,0000.0,0003.47,0007.85,0003.16
2023-02-12 09:56:00,,0822.9,5.01,0.00,22.0,21.5,00.0,30.8,23.8,09.4,0000.0,0003.44,0007.70,0003.13
2023-02-12 09:57:00,,0822.9,4.97,0.00,21.9,21.1,00.0,30.8,23.7,09.4,0000.0,0003.43,0007.34,0003.10
2023-02-12 09:58:00,,0822.9,5.00,0.00,21.9,20.8,00.0,30.8,23.6,09.4,0000.0,0003.38,0006.80,0003.05
2023-02-12 09:59:00,,0822.9,4.96,0.00,21.9,20.5,00.0,30.8,23.5,09.4,0000.0,0003.34,0005.55,0002.99
